Weather History for Madison, MN

Change the Weather History Date:

Thursday, May 16, 2013

  Actual Average (KAQP) Record (KAQP)
Temperature  
Mean Temperature 65 °F -  
Max Temperature 82 °F 65 °F 86 °F (2013)
Min Temperature 48 °F 43 °F 28 °F (2014)
Growing Degree Days 15 (Base 50)    
Moisture  
Dew Point 39 °F    
Average Humidity 41    
Maximum Humidity 67    
Minimum Humidity 16    
Precipitation  
Precipitation 0.00 in - - ()
Sea Level Pressure  
Sea Level Pressure 29.86 in    
Wind  
Wind Speed 7 mph (South)    
Max Wind Speed 16 mph    
Max Gust Speed 33 mph    
Visibility 10 miles    
Events Rain    
Averages and records for this station are not official NWS values.
T = Trace of Precipitation, MM = Missing Value Source: NWS Daily Summary

Daily Weather History Graph

Daily Weather History Graph

Search for Another Location

Airport:

Trip Planner

Search our weather history database for the weather conditions in past years. The results will help you decide how hot, cold, wet, or windy it might be!

Date:

Astronomy

May. 16, 2013 Rise Set
Actual Time 5:54 AM CDT 8:48 PM CDT
Civil Twilight 5:19 AM CDT 9:23 PM CDT
Nautical Twilight 4:36 AM CDT 10:07 PM CDT
Astronomical Twilight 3:44 AM CDT 10:59 PM CDT
Moon 11:33 AM CDT (5/16) 1:05 AM CDT (5/16)
Length of Visible Light 16h 03m
Length of Day
14h 54m
Waxing Crescent, 36% of the Moon is Illuminated
May 16
Waxing Crescent
May 17
First Quarter
May 24
Full
May 31
Last Quarter
Jun 8
New

Hourly Weather History & Observations

Time (CDT) Temp. Dew Point Humidity Pressure Visibility Wind Dir Wind Speed Gust Speed Precip Events Conditions
12:14 AM 57.2 °F 44.6 °F 63% 29.86 in 10.0 mi WSW 5.8 mph - N/A   Clear
12:33 AM 57.2 °F 44.6 °F 63% 29.87 in 10.0 mi West 5.8 mph - N/A   Clear
12:54 AM 55.4 °F 42.8 °F 63% 29.87 in 10.0 mi West 5.8 mph - N/A   Clear
1:14 AM 53.6 °F 41.0 °F 62% 29.87 in 10.0 mi West 8.1 mph - N/A   Clear
1:33 AM 53.6 °F 41.0 °F 62% 29.87 in 10.0 mi West 8.1 mph - N/A   Clear
1:54 AM 53.6 °F 41.0 °F 62% 29.87 in 10.0 mi West 8.1 mph - N/A   Clear
2:13 AM 50.0 °F 39.2 °F 66% 29.88 in 10.0 mi West 6.9 mph - N/A   Clear
2:34 AM 53.6 °F 39.2 °F 58% 29.87 in 10.0 mi West 5.8 mph - N/A   Clear
2:54 AM 51.8 °F 41.0 °F 67% 29.88 in 10.0 mi West 5.8 mph - N/A   Clear
3:13 AM 50.0 °F 39.2 °F 66% 29.88 in 10.0 mi WNW 4.6 mph - N/A   Clear
3:34 AM 50.0 °F 39.2 °F 66% 29.88 in 10.0 mi West 5.8 mph - N/A   Clear
3:54 AM 51.8 °F 41.0 °F 67% 29.88 in 10.0 mi WNW 5.8 mph - N/A   Clear
4:13 AM 50.0 °F 39.2 °F 66% 29.88 in 10.0 mi WNW 6.9 mph - N/A   Clear
4:34 AM 51.8 °F 39.2 °F 62% 29.88 in 10.0 mi NW 4.6 mph - N/A   Clear
4:54 AM 50.0 °F 37.4 °F 62% 29.89 in 10.0 mi WNW 4.6 mph - N/A   Clear
5:13 AM 51.8 °F 37.4 °F 58% 29.88 in 10.0 mi NW 4.6 mph - N/A   Clear
5:34 AM 50.0 °F 37.4 °F 62% 29.89 in 10.0 mi NW 3.5 mph - N/A   Clear
5:54 AM 48.2 °F 37.4 °F 66% 29.89 in 10.0 mi NNW 4.6 mph - N/A   Clear
6:13 AM 48.2 °F 35.6 °F 62% 29.89 in 10.0 mi NNW 4.6 mph - N/A   Clear
6:34 AM 50.0 °F 37.4 °F 62% 29.90 in 10.0 mi NNW 3.5 mph - N/A   Clear
6:54 AM 50.0 °F 37.4 °F 62% 29.90 in 10.0 mi NNW 3.5 mph - N/A   Clear
7:13 AM 51.8 °F 39.2 °F 62% 29.90 in 10.0 mi Calm Calm - N/A   Clear
7:34 AM 55.4 °F 42.8 °F 63% 29.90 in 10.0 mi Calm Calm - N/A   Clear
7:54 AM 60.8 °F 39.2 °F 45% 29.90 in 10.0 mi East 5.8 mph - N/A   Clear
8:13 AM 62.6 °F 41.0 °F 45% 29.90 in 10.0 mi ESE 4.6 mph - N/A   Clear
8:34 AM 64.4 °F 42.8 °F 45% 29.90 in 10.0 mi SE 5.8 mph - N/A   Clear
8:54 AM 66.2 °F 41.0 °F 40% 29.90 in 10.0 mi SE 5.8 mph - N/A   Clear
9:13 AM 68.0 °F 39.2 °F 35% 29.90 in 10.0 mi ESE 8.1 mph - N/A   Clear
9:34 AM 71.6 °F 39.2 °F 31% 29.90 in 10.0 mi ESE 10.4 mph - N/A   Clear
9:54 AM 71.6 °F 39.2 °F 31% 29.89 in 10.0 mi ESE 12.7 mph - N/A   Clear
10:13 AM 71.6 °F 37.4 °F 29% 29.89 in 10.0 mi ESE 12.7 mph - N/A   Clear
10:34 AM 75.2 °F 37.4 °F 25% 29.88 in 10.0 mi SE 12.7 mph 17.3 mph N/A   Clear
10:54 AM 75.2 °F 37.4 °F 25% 29.88 in 10.0 mi ESE 10.4 mph - N/A   Clear
11:13 AM 75.2 °F 37.4 °F 25% 29.88 in 10.0 mi SE 12.7 mph - N/A   Clear
11:34 AM 77.0 °F 35.6 °F 22% 29.87 in 10.0 mi SE 11.5 mph 17.3 mph N/A   Clear
11:54 AM 78.8 °F 35.6 °F 21% 29.86 in 10.0 mi SE 9.2 mph - N/A   Clear
12:13 PM 78.8 °F 35.6 °F 21% 29.86 in 10.0 mi ESE 12.7 mph - N/A   Clear
12:34 PM 80.6 °F 33.8 °F 18% 29.85 in 10.0 mi SSE 9.2 mph - N/A   Clear
12:54 PM 80.6 °F 33.8 °F 18% 29.85 in 10.0 mi South 11.5 mph - N/A   Clear
1:13 PM 80.6 °F 33.8 °F 18% 29.85 in 10.0 mi SSE 10.4 mph 18.4 mph N/A   Clear
1:34 PM 80.6 °F 32.0 °F 17% 29.84 in 10.0 mi SSE 5.8 mph 23.0 mph N/A   Clear
1:53 PM 80.6 °F 33.8 °F 18% 29.84 in 10.0 mi SE 9.2 mph 16.1 mph N/A   Clear
2:13 PM 80.6 °F 32.0 °F 17% 29.83 in 10.0 mi SE 4.6 mph - N/A   Clear
2:34 PM 80.6 °F 32.0 °F 17% 29.84 in 10.0 mi SE 8.1 mph - N/A   Clear
2:53 PM 80.6 °F 33.8 °F 18% 29.84 in 10.0 mi South 11.5 mph 16.1 mph N/A   Clear
3:13 PM 80.6 °F 32.0 °F 17% 29.84 in 10.0 mi South 10.4 mph - N/A   Clear
3:34 PM 82.4 °F 32.0 °F 16% 29.83 in 10.0 mi South 10.4 mph 16.1 mph N/A   Clear
3:53 PM 82.4 °F 32.0 °F 16% 29.82 in 10.0 mi South 8.1 mph - N/A   Scattered Clouds
4:13 PM 80.6 °F 33.8 °F 18% 29.82 in 10.0 mi South 8.1 mph - N/A   Scattered Clouds
4:34 PM 80.6 °F 33.8 °F 18% 29.80 in 10.0 mi SSE 4.6 mph - N/A   Clear
5:13 PM 80.6 °F 35.6 °F 20% 29.79 in 10.0 mi SSE 8.1 mph - N/A   Clear
5:34 PM 78.8 °F 35.6 °F 21% 29.79 in 10.0 mi SE 9.2 mph - N/A   Scattered Clouds
5:53 PM 78.8 °F 33.8 °F 20% 29.79 in 10.0 mi SE 8.1 mph - N/A   Scattered Clouds
6:13 PM 78.8 °F 35.6 °F 21% 29.79 in 10.0 mi ESE 6.9 mph - N/A   Clear
6:34 PM 78.8 °F 33.8 °F 20% 29.79 in 10.0 mi SW 6.9 mph 33.4 mph N/A   Scattered Clouds
6:53 PM 78.8 °F 33.8 °F 20% 29.78 in 10.0 mi South 6.9 mph - N/A   Mostly Cloudy
7:14 PM 78.8 °F 33.8 °F 20% 29.79 in 10.0 mi South 6.9 mph - N/A   Mostly Cloudy
7:34 PM 73.4 °F 44.6 °F 36% 29.81 in 10.0 mi WSW 16.1 mph 20.7 mph N/A   Mostly Cloudy
7:53 PM 71.6 °F 46.4 °F 41% 29.82 in 10.0 mi West 10.4 mph - N/A   Overcast
8:14 PM 69.8 °F 46.4 °F 43% 29.83 in 10.0 mi West 10.4 mph - N/A   Scattered Clouds
8:34 PM 69.8 °F 46.4 °F 43% 29.84 in 10.0 mi West 5.8 mph - N/A   Scattered Clouds
8:53 PM 68.0 °F 48.2 °F 49% 29.85 in 10.0 mi ENE 8.1 mph - N/A Rain Light Rain
9:14 PM 69.8 °F 46.4 °F 43% 29.85 in 10.0 mi ESE 5.8 mph - N/A   Mostly Cloudy
9:34 PM 69.8 °F 46.4 °F 43% 29.85 in 10.0 mi SE 6.9 mph - N/A   Mostly Cloudy
9:53 PM 68.0 °F 46.4 °F 46% 29.85 in 10.0 mi South 5.8 mph - N/A   Mostly Cloudy
10:14 PM 68.0 °F 46.4 °F 46% 29.85 in 10.0 mi South 3.5 mph - N/A   Overcast
10:34 PM 66.2 °F 46.4 °F 49% 29.86 in 10.0 mi Calm Calm - N/A   Mostly Cloudy
10:53 PM 66.2 °F 46.4 °F 49% 29.85 in 10.0 mi Calm Calm - N/A   Mostly Cloudy
11:14 PM 66.2 °F 46.4 °F 49% 29.85 in 10.0 mi Calm Calm - N/A   Mostly Cloudy
11:33 PM 66.2 °F 46.4 °F 49% 29.85 in 10.0 mi Calm Calm - N/A   Overcast
11:54 PM 62.6 °F 48.2 °F 59% 29.85 in 10.0 mi Calm Calm - N/A   Overcast